Time,TemperatureF,DewpointF,PressureIn,WindDirection,WindDirectionDegrees,WindSpeedMPH,WindSpeedGustMPH,Humidity,HourlyPrecipIn,Conditions,Clouds,dailyrainin,SoftwareType,DateUTC
2013-10-03 00:00:00,64.3,59.7,29.80,South,181,2.0,6.0,85,0.00,,,0.00,VWS V14.01,2013-10-03 05:00:00,
2013-10-03 00:01:00,66.4,61.8,29.80,SSE,158,3.0,4.0,85,0.00,,BKN050,0.00,VWS V14.01,2013-10-03 05:01:00,
2013-10-03 00:06:00,66.8,62.2,29.80,SSE,162,1.0,7.0,85,0.00,,BKN050,0.00,VWS V14.01,2013-10-03 05:06:00,
2013-10-03 00:11:00,67.1,62.5,29.80,SSE,158,2.0,7.0,85,0.00,,BKN050,0.00,VWS V14.01,2013-10-03 05:11:00,
2013-10-03 00:16:00,67.4,62.7,29.80,SSW,197,4.0,7.0,85,0.00,,BKN050,0.00,VWS V14.01,2013-10-03 05:16:00,
2013-10-03 00:21:00,67.5,62.8,29.80,SSE,163,3.0,7.0,85,0.00,,BKN050,0.00,VWS V14.01,2013-10-03 05:21:00,
2013-10-03 00:26:00,67.6,62.9,29.80,SW,214,1.0,7.0,85,0.00,,BKN050,0.00,VWS V14.01,2013-10-03 05:26:00,
2013-10-03 00:30:00,64.9,60.3,29.80,South,191,4.0,7.0,85,0.00,,,0.00,VWS V14.01,2013-10-03 05:30:00,
2013-10-03 00:31:00,67.7,63.0,29.80,SSW,200,3.0,4.0,85,0.00,,BKN050,0.00,VWS V14.01,2013-10-03 05:31:00,
2013-10-03 00:36:00,67.9,63.2,29.80,SSW,207,1.0,6.0,85,0.00,,BKN050,0.00,VWS V14.01,2013-10-03 05:36:00,
2013-10-03 00:41:00,68.0,63.3,29.79,SSE,159,1.0,7.0,85,0.00,,BKN050,0.00,VWS V14.01,2013-10-03 05:41:00,
2013-10-03 00:46:00,68.1,63.4,29.79,SSE,163,2.0,7.0,85,0.00,,BKN050,0.00,VWS V14.01,2013-10-03 05:46:00,
2013-10-03 00:51:00,68.1,63.4,29.79,SSW,207,1.0,7.0,85,0.00,,BKN050,0.00,VWS V14.01,2013-10-03 05:51:00,
2013-10-03 00:56:00,68.1,63.4,29.79,SE,141,3.0,7.0,85,0.00,,BKN050,0.00,VWS V14.01,2013-10-03 05:56:00,
2013-10-03 01:00:00,66.4,61.8,29.80,SSE,158,3.0,9.0,85,0.00,,,0.00,VWS V14.01,2013-10-03 06:00:00,
2013-10-03 01:01:00,67.1,62.5,29.79,SE,126,1.0,3.0,85,0.00,,FEW050,0.00,VWS V14.01,2013-10-03 06:01:00,
2013-10-03 01:06:00,66.4,62.4,29.79,SSE,159,2.0,4.0,87,0.00,,FEW050,0.00,VWS V14.01,2013-10-03 06:06:00,
2013-10-03 01:11:00,66.1,62.5,29.79,SE,146,2.0,4.0,88,0.00,,FEW050,0.00,VWS V14.01,2013-10-03 06:11:00,
2013-10-03 01:16:00,65.6,62.0,29.79,East,101,2.0,4.0,88,0.00,,FEW050,0.00,VWS V14.01,2013-10-03 06:16:00,
2013-10-03 01:21:00,64.9,61.3,29.79,SE,129,2.0,4.0,88,0.00,,FEW050,0.00,VWS V14.01,2013-10-03 06:21:00,
2013-10-03 01:26:00,64.5,61.5,29.79,SE,131,2.0,4.0,90,0.00,,FEW050,0.00,VWS V14.01,2013-10-03 06:26:00,
2013-10-03 01:30:00,67.7,63.0,29.80,SSE,160,4.0,7.0,85,0.00,,,0.00,VWS V14.01,2013-10-03 06:30:00,
2013-10-03 01:31:00,64.6,61.9,29.79,SE,138,1.0,1.0,91,0.00,,FEW050,0.00,VWS V14.01,2013-10-03 06:31:00,
2013-10-03 01:36:00,64.5,61.8,29.79,SE,128,1.0,3.0,91,0.00,,FEW050,0.00,VWS V14.01,2013-10-03 06:36:00,
2013-10-03 01:41:00,64.2,61.2,29.79,SE,146,2.0,3.0,90,0.00,,FEW050,0.00,VWS V14.01,2013-10-03 06:41:00,
2013-10-03 01:46:00,64.2,61.5,29.79,SSE,163,1.0,3.0,91,0.00,,FEW050,0.00,VWS V14.01,2013-10-03 06:46:00,
2013-10-03 01:51:00,64.4,62.0,29.79,SSE,149,2.0,4.0,92,0.00,,FEW050,0.00,VWS V14.01,2013-10-03 06:51:00,
2013-10-03 01:56:00,64.7,62.3,29.80,SE,134,4.0,4.0,92,0.00,,FEW050,0.00,VWS V14.01,2013-10-03 06:56:00,
2013-10-03 02:00:00,67.3,62.6,29.79,ESE,123,2.0,7.0,85,0.00,,,0.00,VWS V14.01,2013-10-03 07:00:00,
2013-10-03 02:01:00,64.6,61.9,29.80,SSE,150,1.0,3.0,91,0.00,,CLR,0.00,VWS V14.01,2013-10-03 07:01:00,
2013-10-03 02:06:00,64.3,61.6,29.80,SE,131,1.0,3.0,91,0.00,,CLR,0.00,VWS V14.01,2013-10-03 07:06:00,
2013-10-03 02:11:00,63.8,60.8,29.80,ESE,105,3.0,3.0,90,0.00,,CLR,0.00,VWS V14.01,2013-10-03 07:11:00,
2013-10-03 02:16:00,63.5,61.1,29.80,East,89,1.0,4.0,92,0.00,,CLR,0.00,VWS V14.01,2013-10-03 07:16:00,
2013-10-03 02:21:00,63.5,61.1,29.80,NNE,33,0.0,4.0,92,0.00,,CLR,0.00,VWS V14.01,2013-10-03 07:21:00,
2013-10-03 02:26:00,63.2,60.5,29.80,NE,51,0.0,4.0,91,0.00,,CLR,0.00,VWS V14.01,2013-10-03 07:26:00,
2013-10-03 02:30:00,64.6,61.9,29.79,SSE,149,1.0,4.0,91,0.00,,,0.00,VWS V14.01,2013-10-03 07:30:00,
2013-10-03 02:31:00,63.0,61.0,29.80,ENE,61,0.0,1.0,93,0.00,,CLR,0.00,VWS V14.01,2013-10-03 07:31:00,
2013-10-03 02:36:00,63.3,61.5,29.80,NE,42,0.0,1.0,94,0.00,,CLR,0.00,VWS V14.01,2013-10-03 07:36:00,
2013-10-03 02:41:00,63.8,62.0,29.80,ENE,58,2.0,2.0,94,0.00,,CLR,0.00,VWS V14.01,2013-10-03 07:41:00,
2013-10-03 02:46:00,64.1,61.4,29.80,NNE,32,0.0,3.0,91,0.00,,CLR,0.00,VWS V14.01,2013-10-03 07:46:00,
2013-10-03 02:51:00,64.2,61.2,29.80,ENE,68,0.0,3.0,90,0.00,,CLR,0.00,VWS V14.01,2013-10-03 07:51:00,
2013-10-03 02:56:00,64.4,61.1,29.80,NE,46,1.0,3.0,89,0.00,,CLR,0.00,VWS V14.01,2013-10-03 07:56:00,
2013-10-03 03:00:00,64.7,62.0,29.80,SSE,155,2.0,4.0,91,0.00,,,0.00,VWS V14.01,2013-10-03 08:00:00,
2013-10-03 03:01:00,64.5,60.9,29.80,North,11,0.0,1.0,88,0.00,,OVC043,0.00,VWS V14.01,2013-10-03 08:01:00,
2013-10-03 03:06:00,64.4,60.1,29.79,ENE,64,0.0,4.0,86,0.00,,OVC043,0.00,VWS V14.01,2013-10-03 08:06:00,
2013-10-03 03:11:00,64.2,59.6,29.80,SSE,158,0.0,4.0,85,0.00,,OVC043,0.00,VWS V14.01,2013-10-03 08:11:00,
2013-10-03 03:16:00,64.1,59.5,29.79,NE,52,0.0,4.0,85,0.00,,OVC043,0.00,VWS V14.01,2013-10-03 08:16:00,
2013-10-03 03:21:00,64.1,59.2,29.79,NE,46,0.0,4.0,84,0.00,,OVC043,0.00,VWS V14.01,2013-10-03 08:21:00,
2013-10-03 03:26:00,64.1,59.2,29.78,ENE,61,1.0,4.0,84,0.00,,OVC043,0.00,VWS V14.01,2013-10-03 08:26:00,
2013-10-03 03:30:00,63.0,60.6,29.80,ENE,72,0.0,4.0,92,0.00,,,0.00,VWS V14.01,2013-10-03 08:30:00,
2013-10-03 03:31:00,64.1,59.2,29.78,ENE,66,0.0,1.0,84,0.00,,OVC043,0.00,VWS V14.01,2013-10-03 08:31:00,
2013-10-03 03:36:00,64.1,59.2,29.78,ENE,70,2.0,9.0,84,0.00,,OVC043,0.00,VWS V14.01,2013-10-03 08:36:00,
2013-10-03 03:41:00,64.1,59.2,29.78,East,82,1.0,9.0,84,0.00,,OVC043,0.00,VWS V14.01,2013-10-03 08:41:00,
2013-10-03 03:46:00,64.0,59.1,29.77,ENE,77,1.0,9.0,84,0.00,,OVC043,0.00,VWS V14.01,2013-10-03 08:46:00,
2013-10-03 03:51:00,63.9,58.6,29.78,ENE,73,1.0,9.0,83,0.00,,OVC043,0.00,VWS V14.01,2013-10-03 08:51:00,
2013-10-03 03:56:00,63.9,58.6,29.78,ENE,72,1.0,9.0,83,0.00,,OVC043,0.00,VWS V14.01,2013-10-03 08:56:00,
2013-10-03 04:00:00,64.5,60.9,29.80,NE,53,0.0,3.0,88,0.00,,,0.00,VWS V14.01,2013-10-03 09:00:00,
2013-10-03 04:01:00,63.8,58.5,29.78,ESE,109,2.0,5.0,83,0.00,,BKN040,0.00,VWS V14.01,2013-10-03 09:01:00,
2013-10-03 04:06:00,63.8,58.5,29.78,East,90,4.0,7.0,83,0.00,,BKN040,0.00,VWS V14.01,2013-10-03 09:06:00,
2013-10-03 04:11:00,63.9,58.3,29.78,East,82,4.0,8.0,82,0.00,,BKN040,0.00,VWS V14.01,2013-10-03 09:11:00,
2013-10-03 04:16:00,63.9,58.3,29.78,East,95,1.0,8.0,82,0.00,,BKN040,0.00,VWS V14.01,2013-10-03 09:16:00,
2013-10-03 04:21:00,63.9,58.3,29.78,East,81,1.0,9.0,82,0.00,,BKN040,0.00,VWS V14.01,2013-10-03 09:21:00,
2013-10-03 04:26:00,63.8,58.2,29.78,NE,56,1.0,9.0,82,0.00,,BKN040,0.00,VWS V14.01,2013-10-03 09:26:00,
2013-10-03 04:30:00,64.1,59.2,29.78,ENE,64,0.0,4.0,84,0.00,,,0.00,VWS V14.01,2013-10-03 09:30:00,
2013-10-03 04:31:00,63.6,58.0,29.78,ENE,65,0.0,0.0,82,0.00,,BKN045,0.00,VWS V14.01,2013-10-03 09:31:00,
2013-10-03 04:36:00,63.5,57.9,29.78,SE,126,1.0,1.0,82,0.00,,BKN055,0.00,VWS V14.01,2013-10-03 09:36:00,
2013-10-03 04:41:00,63.4,57.8,29.78,East,101,0.0,5.0,82,0.00,,BKN055,0.00,VWS V14.01,2013-10-03 09:41:00,
2013-10-03 04:46:00,63.5,57.9,29.78,East,98,1.0,5.0,82,0.00,,BKN055,0.00,VWS V14.01,2013-10-03 09:46:00,
2013-10-03 04:51:00,63.5,57.9,29.78,East,79,2.0,6.0,82,0.00,,BKN055,0.00,VWS V14.01,2013-10-03 09:51:00,
2013-10-03 04:56:00,63.5,57.9,29.78,East,86,4.0,6.0,82,0.00,,BKN055,0.00,VWS V14.01,2013-10-03 09:56:00,
2013-10-03 05:00:00,63.8,58.5,29.78,ESE,103,3.0,9.0,83,0.00,,,0.00,VWS V14.01,2013-10-03 10:00:00,
2013-10-03 05:01:00,63.4,57.8,29.78,East,96,1.0,3.0,82,0.00,,SCT060,0.00,VWS V14.01,2013-10-03 10:01:00,
2013-10-03 05:06:00,63.3,58.1,29.78,ESE,111,5.0,7.0,83,0.00,,SCT060,0.00,VWS V14.01,2013-10-03 10:06:00,
2013-10-03 05:11:00,63.2,58.0,29.78,ENE,78,1.0,7.0,83,0.00,,SCT060,0.00,VWS V14.01,2013-10-03 10:11:00,
2013-10-03 05:16:00,63.1,58.2,29.78,East,96,0.0,7.0,84,0.00,,SCT060,0.00,VWS V14.01,2013-10-03 10:16:00,
2013-10-03 05:21:00,62.9,58.3,29.78,NE,47,1.0,7.0,85,0.00,,SCT060,0.00,VWS V14.01,2013-10-03 10:21:00,
2013-10-03 05:26:00,62.7,58.5,29.78,ENE,70,1.0,7.0,86,0.00,,BKN060,0.00,VWS V14.01,2013-10-03 10:26:00,
2013-10-03 05:30:00,63.7,58.1,29.78,ENE,65,0.0,9.0,82,0.00,,,0.00,VWS V14.01,2013-10-03 10:30:00,
2013-10-03 05:31:00,62.5,58.6,29.78,East,81,0.0,0.0,87,0.00,,BKN055,0.00,VWS V14.01,2013-10-03 10:31:00,
2013-10-03 05:36:00,62.3,58.4,29.78,ENE,77,1.0,5.0,87,0.00,,BKN055,0.00,VWS V14.01,2013-10-03 10:36:00,
2013-10-03 05:41:00,62.2,58.6,29.77,ENE,63,0.0,5.0,88,0.00,,BKN055,0.00,VWS V14.01,2013-10-03 10:41:00,
2013-10-03 05:46:00,62.1,58.5,29.77,ENE,70,0.0,5.0,88,0.00,,BKN055,0.00,VWS V14.01,2013-10-03 10:46:00,
2013-10-03 05:51:00,62.1,58.5,29.77,East,79,1.0,5.0,88,0.00,,BKN055,0.00,VWS V14.01,2013-10-03 10:51:00,
2013-10-03 05:56:00,62.1,58.5,29.78,ENE,73,0.0,5.0,88,0.00,,BKN055,0.00,VWS V14.01,2013-10-03 10:56:00,
2013-10-03 06:00:00,63.5,57.9,29.78,ESE,119,2.0,6.0,82,0.00,,,0.00,VWS V14.01,2013-10-03 11:00:00,
2013-10-03 06:01:00,62.2,58.6,29.78,East,90,3.0,3.0,88,0.00,,OVC018,0.00,VWS V14.01,2013-10-03 11:01:00,
2013-10-03 06:06:00,62.3,58.4,29.78,East,79,3.0,6.0,87,0.00,,OVC018,0.00,VWS V14.01,2013-10-03 11:06:00,
2013-10-03 06:11:00,62.4,58.8,29.78,East,91,3.0,6.0,88,0.00,,OVC018,0.00,VWS V14.01,2013-10-03 11:11:00,
2013-10-03 06:16:00,62.4,58.8,29.78,East,85,3.0,6.0,88,0.00,,OVC018,0.00,VWS V14.01,2013-10-03 11:16:00,
2013-10-03 06:21:00,62.5,58.9,29.78,ENE,77,4.0,8.0,88,0.00,,OVC018,0.00,VWS V14.01,2013-10-03 11:21:00,
2013-10-03 06:26:00,62.6,59.0,29.78,East,81,0.0,8.0,88,0.00,,OVC018,0.00,VWS V14.01,2013-10-03 11:26:00,
2013-10-03 06:30:00,62.5,58.6,29.78,ENE,73,0.0,7.0,87,0.00,,,0.00,VWS V14.01,2013-10-03 11:30:00,
2013-10-03 06:31:00,62.6,59.3,29.78,East,87,2.0,4.0,89,0.00,,OVC018,0.00,VWS V14.01,2013-10-03 11:31:00,
2013-10-03 06:36:00,62.7,59.4,29.78,ESE,110,3.0,5.0,89,0.00,,OVC018,0.00,VWS V14.01,2013-10-03 11:36:00,
2013-10-03 06:41:00,62.7,59.4,29.77,SE,125,3.0,5.0,89,0.00,,OVC018,0.00,VWS V14.01,2013-10-03 11:41:00,
2013-10-03 06:46:00,62.7,59.4,29.77,East,95,3.0,6.0,89,0.00,,OVC018,0.00,VWS V14.01,2013-10-03 11:46:00,
2013-10-03 06:51:00,62.8,59.5,29.76,East,81,1.0,6.0,89,0.00,,OVC018,0.00,VWS V14.01,2013-10-03 11:51:00,
2013-10-03 06:56:00,62.8,59.5,29.76,ESE,110,4.0,6.0,89,0.00,,OVC018,0.00,VWS V14.01,2013-10-03 11:56:00,
2013-10-03 07:00:00,62.2,58.6,29.78,ENE,70,2.0,5.0,88,0.00,,,0.00,VWS V14.01,2013-10-03 12:00:00,
2013-10-03 07:01:00,62.8,59.5,29.77,ENE,60,2.0,2.0,89,0.00,,OVC016,0.00,VWS V14.01,2013-10-03 12:01:00,
2013-10-03 07:06:00,62.8,59.8,29.76,ESE,107,4.0,4.0,90,0.00,,OVC016,0.00,VWS V14.01,2013-10-03 12:06:00,
2013-10-03 07:11:00,62.8,59.8,29.76,SE,132,5.0,8.0,90,0.00,,OVC016,0.00,VWS V14.01,2013-10-03 12:11:00,
2013-10-03 07:16:00,62.8,59.8,29.76,East,99,4.0,8.0,90,0.00,,OVC014,0.00,VWS V14.01,2013-10-03 12:16:00,
2013-10-03 07:21:00,62.9,59.9,29.76,East,81,7.0,10.0,90,0.00,,OVC014,0.00,VWS V14.01,2013-10-03 12:21:00,
2013-10-03 07:26:00,63.0,60.0,29.75,East,85,3.0,10.0,90,0.00,,OVC014,0.00,VWS V14.01,2013-10-03 12:26:00,
2013-10-03 07:30:00,62.6,59.3,29.78,East,97,4.0,8.0,89,0.00,,,0.00,VWS V14.01,2013-10-03 12:30:00,
2013-10-03 07:31:00,62.9,60.2,29.75,ESE,111,4.0,5.0,91,0.00,,OVC014,0.00,VWS V14.01,2013-10-03 12:31:00,
2013-10-03 07:36:00,62.9,60.2,29.75,East,95,5.0,7.0,91,0.00,,OVC014,0.00,VWS V14.01,2013-10-03 12:36:00,
2013-10-03 07:41:00,63.0,60.3,29.75,East,98,8.0,11.0,91,0.00,,OVC014,0.00,VWS V14.01,2013-10-03 12:41:00,
2013-10-03 07:46:00,63.0,60.6,29.75,ESE,108,9.0,14.0,92,0.00,,OVC014,0.00,VWS V14.01,2013-10-03 12:46:00,
2013-10-03 07:51:00,62.8,60.8,29.75,East,100,12.0,14.0,93,0.01,,OVC014,0.01,VWS V14.01,2013-10-03 12:51:00,
2013-10-03 07:56:00,62.6,60.8,29.74,ESE,117,9.0,15.0,94,0.06,,OVC014,0.06,VWS V14.01,2013-10-03 12:56:00,
2013-10-03 08:00:00,62.8,59.5,29.77,SE,126,1.0,7.0,89,0.00,,,0.00,VWS V14.01,2013-10-03 13:00:00,
2013-10-03 08:01:00,62.6,61.2,29.75,East,96,8.0,8.0,95,0.08,,-RA,0.08,VWS V14.01,2013-10-03 13:01:00,
2013-10-03 08:06:00,62.6,61.2,29.73,ESE,119,4.0,12.0,95,0.12,,-RA,0.12,VWS V14.01,2013-10-03 13:06:00,
2013-10-03 08:11:00,62.5,61.6,29.73,ESE,108,8.0,12.0,97,0.13,,-RA,0.13,VWS V14.01,2013-10-03 13:11:00,
2013-10-03 08:16:00,62.5,61.6,29.73,East,91,3.0,12.0,97,0.13,,-RA,0.13,VWS V14.01,2013-10-03 13:16:00,
2013-10-03 08:21:00,62.5,61.6,29.73,East,97,6.0,12.0,97,0.13,,-RA,0.13,VWS V14.01,2013-10-03 13:21:00,
2013-10-03 08:26:00,62.5,61.6,29.73,East,98,12.0,12.0,97,0.13,,-RA,0.13,VWS V14.01,2013-10-03 13:26:00,
2013-10-03 08:30:00,63.0,60.3,29.75,ESE,106,4.0,10.0,91,0.00,,,0.00,VWS V14.01,2013-10-03 13:30:00,
2013-10-03 08:31:00,62.7,62.1,29.74,ESE,109,8.0,10.0,98,0.14,,-RA,0.14,VWS V14.01,2013-10-03 13:31:00,
2013-10-03 08:36:00,62.8,62.2,29.74,ESE,109,8.0,12.0,98,0.14,,BKN095,0.14,VWS V14.01,2013-10-03 13:36:00,
2013-10-03 08:41:00,62.9,62.3,29.74,ESE,112,11.0,14.0,98,0.14,,BKN095,0.14,VWS V14.01,2013-10-03 13:41:00,
2013-10-03 08:46:00,63.0,62.4,29.74,ESE,117,11.0,17.0,98,0.14,,BKN095,0.14,VWS V14.01,2013-10-03 13:46:00,
2013-10-03 08:51:00,63.1,62.5,29.75,ESE,111,9.0,17.0,98,0.14,,BKN095,0.14,VWS V14.01,2013-10-03 13:51:00,
2013-10-03 08:56:00,63.1,62.5,29.76,SE,134,7.0,17.0,98,0.14,,OVC090,0.14,VWS V14.01,2013-10-03 13:56:00,
2013-10-03 09:00:00,62.7,61.0,29.75,SE,131,6.0,15.0,94,0.08,,,0.08,VWS V14.01,2013-10-03 14:00:00,
2013-10-03 09:01:00,63.1,62.5,29.76,SE,129,7.0,7.0,98,0.06,,OVC012,0.14,VWS V14.01,2013-10-03 14:01:00,
2013-10-03 09:06:00,63.2,62.6,29.74,East,94,4.0,10.0,98,0.11,,OVC012,0.19,VWS V14.01,2013-10-03 14:06:00,
2013-10-03 09:11:00,63.3,62.7,29.74,ENE,74,0.0,10.0,98,0.12,,OVC012,0.20,VWS V14.01,2013-10-03 14:11:00,
2013-10-03 09:16:00,63.4,62.8,29.74,NE,49,0.0,10.0,98,0.12,,OVC012,0.20,VWS V14.01,2013-10-03 14:16:00,
2013-10-03 09:21:00,63.4,62.8,29.74,ESE,108,3.0,10.0,98,0.12,,OVC012,0.20,VWS V14.01,2013-10-03 14:21:00,
2013-10-03 09:26:00,63.5,62.9,29.74,East,91,4.0,10.0,98,0.12,,-RA,0.20,VWS V14.01,2013-10-03 14:26:00,
2013-10-03 09:30:00,62.6,62.0,29.74,SE,134,10.0,14.0,98,0.14,,,0.14,VWS V14.01,2013-10-03 14:30:00,
2013-10-03 09:31:00,63.5,62.9,29.73,ESE,103,6.0,6.0,98,0.06,,-RA,0.20,VWS V14.01,2013-10-03 14:31:00,
2013-10-03 09:36:00,63.6,63.0,29.73,ESE,120,11.0,11.0,98,0.06,,-RA,0.20,VWS V14.01,2013-10-03 14:36:00,
2013-10-03 09:41:00,63.6,63.0,29.72,ESE,111,9.0,11.0,98,0.06,,-RA,0.20,VWS V14.01,2013-10-03 14:41:00,
2013-10-03 09:46:00,63.6,63.0,29.72,ESE,111,6.0,12.0,98,0.06,,-RA,0.20,VWS V14.01,2013-10-03 14:46:00,
2013-10-03 09:51:00,63.7,63.1,29.72,ENE,73,0.0,12.0,98,0.06,,OVC008,0.20,VWS V14.01,2013-10-03 14:51:00,
2013-10-03 09:56:00,63.8,63.2,29.75,SSW,201,6.0,12.0,98,0.07,,OVC006,0.21,VWS V14.01,2013-10-03 14:56:00,
2013-10-03 10:00:00,63.1,62.5,29.76,SE,133,6.0,17.0,98,0.14,,,0.14,VWS V14.01,2013-10-03 15:00:00,
2013-10-03 10:01:00,63.9,63.3,29.75,SW,226,4.0,5.0,98,0.25,,-RA,0.39,VWS V14.01,2013-10-03 15:01:00,
2013-10-03 10:06:00,63.9,63.3,29.74,ESE,118,4.0,8.0,98,0.44,,-RA,0.58,VWS V14.01,2013-10-03 15:06:00,
2013-10-03 10:11:00,63.8,63.2,29.74,ESE,117,9.0,12.0,98,0.49,,-RA,0.63,VWS V14.01,2013-10-03 15:11:00,
2013-10-03 10:16:00,63.8,63.2,29.74,SE,134,8.0,12.0,98,0.50,,-RA,0.64,VWS V14.01,2013-10-03 15:16:00,
2013-10-03 10:21:00,63.5,62.9,29.75,ESE,115,5.0,12.0,98,0.50,,,0.64,VWS V14.01,2013-10-03 15:21:00,
2013-10-03 10:26:00,64.1,63.8,29.74,ESE,112,8.0,12.0,99,0.50,,,0.64,VWS V14.01,2013-10-03 15:26:00,
2013-10-03 10:30:00,63.5,62.9,29.73,East,98,2.0,11.0,98,0.12,,,0.20,VWS V14.01,2013-10-03 15:30:00,
2013-10-03 10:31:00,64.4,64.1,29.74,ESE,120,6.0,6.0,99,0.44,,,0.64,VWS V14.01,2013-10-03 15:31:00,
2013-10-03 10:36:00,64.7,64.4,29.74,ESE,113,6.0,7.0,99,0.44,,,0.64,VWS V14.01,2013-10-03 15:36:00,
2013-10-03 10:41:00,65.0,64.7,29.74,ESE,112,5.0,9.0,99,0.44,,BKN110,0.64,VWS V14.01,2013-10-03 15:41:00,
2013-10-03 10:46:00,65.3,65.0,29.74,East,98,8.0,10.0,99,0.44,,BKN110,0.64,VWS V14.01,2013-10-03 15:46:00,
2013-10-03 10:51:00,65.4,65.1,29.74,East,101,7.0,12.0,99,0.44,,BKN110,0.64,VWS V14.01,2013-10-03 15:51:00,
2013-10-03 10:56:00,65.4,65.1,29.74,ESE,111,7.0,12.0,99,0.44,,BKN110,0.64,VWS V14.01,2013-10-03 15:56:00,
2013-10-03 11:00:00,63.9,63.3,29.76,WSW,251,3.0,12.0,98,0.23,,,0.37,VWS V14.01,2013-10-03 16:00:00,
2013-10-03 11:01:00,65.3,64.7,29.74,SE,143,8.0,10.0,98,0.27,,OVC120,0.64,VWS V14.01,2013-10-03 16:01:00,
2013-10-03 11:06:00,65.3,64.7,29.74,SSE,155,7.0,11.0,98,0.27,,OVC110,0.64,VWS V14.01,2013-10-03 16:06:00,
2013-10-03 11:11:00,65.6,65.0,29.74,SE,131,7.0,11.0,98,0.27,,OVC110,0.64,VWS V14.01,2013-10-03 16:11:00,
2013-10-03 11:16:00,65.6,65.0,29.75,SE,134,6.0,11.0,98,0.27,,OVC110,0.64,VWS V14.01,2013-10-03 16:16:00,
2013-10-03 11:21:00,65.6,65.0,29.74,SE,135,7.0,11.0,98,0.27,,OVC110,0.64,VWS V14.01,2013-10-03 16:21:00,
2013-10-03 11:26:00,65.8,65.2,29.74,SE,128,7.0,11.0,98,0.27,,OVC110,0.64,VWS V14.01,2013-10-03 16:26:00,
2013-10-03 11:30:00,64.4,64.1,29.74,SE,124,6.0,12.0,99,0.50,,,0.64,VWS V14.01,2013-10-03 16:30:00,
2013-10-03 11:31:00,65.8,65.2,29.74,South,174,8.0,9.0,98,0.00,,OVC100,0.64,VWS V14.01,2013-10-03 16:31:00,
2013-10-03 11:36:00,65.7,65.1,29.74,SSE,165,5.0,10.0,98,0.00,,OVC100,0.64,VWS V14.01,2013-10-03 16:36:00,
2013-10-03 11:41:00,65.7,65.1,29.73,SSE,159,6.0,11.0,98,0.00,,OVC018,0.64,VWS V14.01,2013-10-03 16:41:00,
2013-10-03 11:46:00,65.7,65.1,29.73,SE,138,6.0,11.0,98,0.00,,OVC018,0.64,VWS V14.01,2013-10-03 16:46:00,
2013-10-03 11:51:00,65.8,65.5,29.73,SE,138,6.0,11.0,99,0.00,,OVC018,0.64,VWS V14.01,2013-10-03 16:51:00,
2013-10-03 11:56:00,66.1,65.8,29.73,SE,146,6.0,11.0,99,0.00,,OVC018,0.64,VWS V14.01,2013-10-03 16:56:00,
2013-10-03 12:00:00,65.3,64.7,29.74,SE,128,6.0,14.0,98,0.44,,,0.64,VWS V14.01,2013-10-03 17:00:00,
2013-10-03 12:01:00,66.1,65.8,29.73,South,176,8.0,8.0,99,0.00,,,0.64,VWS V14.01,2013-10-03 17:01:00,
2013-10-03 12:06:00,66.4,66.1,29.73,SSE,155,5.0,9.0,99,0.00,,,0.64,VWS V14.01,2013-10-03 17:06:00,
2013-10-03 12:11:00,66.6,66.3,29.73,South,180,8.0,13.0,99,0.00,,,0.64,VWS V14.01,2013-10-03 17:11:00,
2013-10-03 12:16:00,66.7,66.4,29.73,South,180,4.0,13.0,99,0.00,,,0.64,VWS V14.01,2013-10-03 17:16:00,
2013-10-03 12:21:00,66.8,66.2,29.73,SSE,160,3.0,13.0,98,0.00,,,0.64,VWS V14.01,2013-10-03 17:21:00,
2013-10-03 12:26:00,67.0,66.4,29.73,SE,131,9.0,13.0,98,0.00,,,0.64,VWS V14.01,2013-10-03 17:26:00,
2013-10-03 12:30:00,65.8,65.2,29.74,SE,136,7.0,11.0,98,0.27,,,0.64,VWS V14.01,2013-10-03 17:30:00,
2013-10-03 12:31:00,67.4,66.8,29.73,SSE,150,4.0,6.0,98,0.00,,,0.64,VWS V14.01,2013-10-03 17:31:00,
2013-10-03 12:36:00,67.6,67.0,29.72,SSE,151,3.0,10.0,98,0.00,,,0.64,VWS V14.01,2013-10-03 17:36:00,
2013-10-03 12:41:00,67.9,67.3,29.72,SSE,158,5.0,10.0,98,0.00,,,0.64,VWS V14.01,2013-10-03 17:41:00,
2013-10-03 12:46:00,68.1,67.5,29.71,South,179,4.0,11.0,98,0.00,,,0.64,VWS V14.01,2013-10-03 17:46:00,
2013-10-03 12:51:00,68.6,68.0,29.71,SE,138,3.0,11.0,98,0.00,,,0.64,VWS V14.01,2013-10-03 17:51:00,
2013-10-03 12:56:00,69.1,68.2,29.71,SW,215,3.0,11.0,97,0.00,,,0.64,VWS V14.01,2013-10-03 17:56:00,
2013-10-03 13:00:00,66.1,65.8,29.73,SE,137,6.0,11.0,99,0.00,,,0.64,VWS V14.01,2013-10-03 18:00:00,
2013-10-03 13:01:00,69.4,68.2,29.71,SSE,159,7.0,7.0,96,0.00,,BKN013,0.64,VWS V14.01,2013-10-03 18:01:00,
2013-10-03 13:06:00,69.7,67.6,29.70,SSW,194,1.0,10.0,93,0.00,,BKN013,0.64,VWS V14.01,2013-10-03 18:06:00,
2013-10-03 13:11:00,70.4,68.3,29.70,SE,141,4.0,10.0,93,0.00,,SCT011,0.64,VWS V14.01,2013-10-03 18:11:00,
2013-10-03 13:16:00,71.1,68.3,29.70,SSW,198,5.0,10.0,91,0.00,,SCT011,0.64,VWS V14.01,2013-10-03 18:16:00,
2013-10-03 13:21:00,71.9,67.2,29.70,SSW,193,7.0,12.0,85,0.00,,SCT011,0.64,VWS V14.01,2013-10-03 18:21:00,
2013-10-03 13:26:00,72.3,67.2,29.70,SSW,206,3.0,13.0,84,0.00,,SCT011,0.64,VWS V14.01,2013-10-03 18:26:00,
2013-10-03 13:30:00,67.3,67.0,29.73,SSE,159,4.0,13.0,99,0.00,,,0.64,VWS V14.01,2013-10-03 18:30:00,
2013-10-03 13:31:00,72.7,66.9,29.70,SSE,151,6.0,8.0,82,0.00,,SCT011,0.64,VWS V14.01,2013-10-03 18:31:00,
2013-10-03 13:36:00,73.1,66.2,29.70,SW,226,9.0,13.0,79,0.00,,SCT011,0.64,VWS V14.01,2013-10-03 18:36:00,
2013-10-03 13:41:00,73.3,66.8,29.70,South,178,6.0,13.0,80,0.00,,SCT011,0.64,VWS V14.01,2013-10-03 18:41:00,
2013-10-03 13:46:00,73.7,66.4,29.69,SW,222,3.0,13.0,78,0.00,,SCT011,0.64,VWS V14.01,2013-10-03 18:46:00,
2013-10-03 13:51:00,74.1,65.3,29.70,SW,235,3.0,13.0,74,0.00,,SCT011,0.64,VWS V14.01,2013-10-03 18:51:00,
2013-10-03 13:56:00,74.3,65.9,29.69,SSE,162,5.0,13.0,75,0.00,,SCT011,0.64,VWS V14.01,2013-10-03 18:56:00,
2013-10-03 14:00:00,69.4,68.2,29.71,SSE,150,3.0,11.0,96,0.00,,,0.64,VWS V14.01,2013-10-03 19:00:00,
2013-10-03 14:01:00,74.4,65.2,29.69,SW,224,6.0,7.0,73,0.00,,FEW017,0.64,VWS V14.01,2013-10-03 19:01:00,
2013-10-03 14:06:00,74.6,65.4,29.69,South,174,9.0,13.0,73,0.00,,FEW017,0.64,VWS V14.01,2013-10-03 19:06:00,
2013-10-03 14:11:00,74.9,65.7,29.69,South,176,7.0,13.0,73,0.00,,FEW017,0.64,VWS V14.01,2013-10-03 19:11:00,
2013-10-03 14:16:00,75.2,66.0,29.69,SSE,160,6.0,13.0,73,0.00,,FEW017,0.64,VWS V14.01,2013-10-03 19:16:00,
2013-10-03 14:21:00,75.7,64.4,29.69,SW,217,4.0,13.0,68,0.00,,FEW017,0.64,VWS V14.01,2013-10-03 19:21:00,
2013-10-03 14:26:00,75.9,64.6,29.69,SSE,158,4.0,13.0,68,0.00,,FEW017,0.64,VWS V14.01,2013-10-03 19:26:00,
2013-10-03 14:30:00,72.6,66.8,29.70,South,176,6.0,13.0,82,0.00,,,0.64,VWS V14.01,2013-10-03 19:30:00,
2013-10-03 14:31:00,76.3,64.1,29.69,WSW,248,3.0,7.0,66,0.00,,FEW017,0.64,VWS V14.01,2013-10-03 19:31:00,
2013-10-03 14:36:00,76.7,64.9,29.69,South,170,3.0,11.0,67,0.00,,FEW017,0.64,VWS V14.01,2013-10-03 19:36:00,
2013-10-03 14:41:00,76.8,64.2,29.69,WSW,245,4.0,11.0,65,0.00,,FEW017,0.64,VWS V14.01,2013-10-03 19:41:00,
2013-10-03 14:46:00,76.8,62.8,29.69,South,187,6.0,14.0,62,0.00,,FEW017,0.64,VWS V14.01,2013-10-03 19:46:00,
2013-10-03 14:51:00,77.1,62.2,29.69,SSW,202,7.0,14.0,60,0.00,,FEW017,0.64,VWS V14.01,2013-10-03 19:51:00,
2013-10-03 14:56:00,77.2,61.3,29.69,SSW,207,13.0,16.0,58,0.00,,FEW017,0.64,VWS V14.01,2013-10-03 19:56:00,
2013-10-03 15:00:00,74.4,65.2,29.69,WSW,250,4.0,13.0,73,0.00,,,0.64,VWS V14.01,2013-10-03 20:00:00,
2013-10-03 15:01:00,77.5,59.6,29.69,South,177,7.0,13.0,54,0.00,,CLR,0.64,VWS V14.01,2013-10-03 20:01:00,
2013-10-03 15:06:00,77.8,59.8,29.69,SSE,148,3.0,15.0,54,0.00,,CLR,0.64,VWS V14.01,2013-10-03 20:06:00,
2013-10-03 15:11:00,77.9,59.9,29.69,SSW,205,8.0,15.0,54,0.00,,CLR,0.64,VWS V14.01,2013-10-03 20:11:00,
2013-10-03 15:16:00,78.1,59.1,29.69,SSW,208,9.0,15.0,52,0.00,,CLR,0.64,VWS V14.01,2013-10-03 20:16:00,
2013-10-03 15:21:00,78.2,59.2,29.70,WSW,256,6.0,15.0,52,0.00,,CLR,0.64,VWS V14.01,2013-10-03 20:21:00,
2013-10-03 15:26:00,78.1,58.5,29.70,WSW,242,5.0,15.0,51,0.00,,CLR,0.64,VWS V14.01,2013-10-03 20:26:00,
2013-10-03 15:30:00,76.2,63.6,29.69,SSW,212,7.0,13.0,65,0.00,,,0.64,VWS V14.01,2013-10-03 20:30:00,
2013-10-03 15:31:00,78.4,59.3,29.70,SW,215,3.0,7.0,52,0.00,,CLR,0.64,VWS V14.01,2013-10-03 20:31:00,
2013-10-03 15:36:00,78.7,58.5,29.70,WSW,251,6.0,9.0,50,0.00,,CLR,0.64,VWS V14.01,2013-10-03 20:36:00,
2013-10-03 15:41:00,78.8,58.0,29.70,West,267,6.0,11.0,49,0.00,,CLR,0.64,VWS V14.01,2013-10-03 20:41:00,
2013-10-03 15:46:00,78.8,59.2,29.71,SSE,164,5.0,11.0,51,0.00,,CLR,0.64,VWS V14.01,2013-10-03 20:46:00,
2013-10-03 15:51:00,78.8,58.0,29.70,SSW,193,5.0,11.0,49,0.00,,CLR,0.64,VWS V14.01,2013-10-03 20:51:00,
2013-10-03 15:56:00,78.1,57.4,29.70,West,274,6.0,12.0,49,0.00,,CLR,0.64,VWS V14.01,2013-10-03 20:56:00,
2013-10-03 16:00:00,77.5,61.1,29.69,SE,141,8.0,16.0,57,0.00,,,0.64,VWS V14.01,2013-10-03 21:00:00,
2013-10-03 16:01:00,77.9,57.8,29.70,West,263,4.0,5.0,50,0.00,,FEW060,0.64,VWS V14.01,2013-10-03 21:01:00,
2013-10-03 16:06:00,77.5,58.0,29.71,WSW,243,4.0,10.0,51,0.00,,FEW060,0.64,VWS V14.01,2013-10-03 21:06:00,
2013-10-03 16:11:00,77.0,58.6,29.71,WSW,257,3.0,10.0,53,0.00,,FEW060,0.64,VWS V14.01,2013-10-03 21:11:00,
2013-10-03 16:16:00,77.1,58.7,29.71,WNW,292,5.0,10.0,53,0.00,,FEW060,0.64,VWS V14.01,2013-10-03 21:16:00,
2013-10-03 16:21:00,77.2,61.8,29.71,NW,325,1.0,10.0,59,0.00,,FEW060,0.64,VWS V14.01,2013-10-03 21:21:00,
2013-10-03 16:26:00,76.4,64.2,29.71,NW,316,1.0,10.0,66,0.00,,FEW060,0.64,VWS V14.01,2013-10-03 21:26:00,
2013-10-03 16:30:00,78.3,58.2,29.70,WSW,255,4.0,15.0,50,0.00,,,0.64,VWS V14.01,2013-10-03 21:30:00,
2013-10-03 16:31:00,75.7,64.8,29.71,WSW,243,1.0,1.0,69,0.00,,FEW060,0.64,VWS V14.01,2013-10-03 21:31:00,
2013-10-03 16:36:00,75.3,64.4,29.71,WNW,295,0.0,3.0,69,0.00,,FEW060,0.64,VWS V14.01,2013-10-03 21:36:00,
2013-10-03 16:41:00,75.1,64.2,29.71,NW,309,0.0,3.0,69,0.00,,FEW060,0.64,VWS V14.01,2013-10-03 21:41:00,
2013-10-03 16:46:00,75.9,65.0,29.70,NW,311,0.0,3.0,69,0.00,,FEW060,0.64,VWS V14.01,2013-10-03 21:46:00,
2013-10-03 16:51:00,76.3,65.0,29.70,NNE,20,2.0,5.0,68,0.00,,FEW060,0.64,VWS V14.01,2013-10-03 21:51:00,
2013-10-03 16:56:00,75.8,65.3,29.71,NW,318,0.0,5.0,70,0.00,,FEW060,0.64,VWS V14.01,2013-10-03 21:56:00,
2013-10-03 17:00:00,77.9,58.9,29.71,SW,231,5.0,12.0,52,0.00,,,0.64,VWS V14.01,2013-10-03 22:00:00,
2013-10-03 17:01:00,75.6,65.5,29.71,NW,316,1.0,1.0,71,0.00,,BKN095,0.64,VWS V14.01,2013-10-03 22:01:00,
2013-10-03 17:06:00,75.6,65.1,29.71,North,11,0.0,4.0,70,0.00,,BKN095,0.64,VWS V14.01,2013-10-03 22:06:00,
2013-10-03 17:11:00,75.2,65.2,29.71,NNW,346,1.0,4.0,71,0.00,,BKN095,0.64,VWS V14.01,2013-10-03 22:11:00,
2013-10-03 17:16:00,74.8,64.8,29.71,NNE,16,1.0,4.0,71,0.00,,BKN095,0.64,VWS V14.01,2013-10-03 22:16:00,
2013-10-03 17:21:00,74.5,64.5,29.72,NE,38,1.0,4.0,71,0.00,,BKN095,0.64,VWS V14.01,2013-10-03 22:21:00,
2013-10-03 17:26:00,73.7,64.1,29.72,North,359,2.0,4.0,72,0.00,,BKN095,0.64,VWS V14.01,2013-10-03 22:26:00,
2013-10-03 17:30:00,75.7,64.4,29.71,NNW,341,0.0,10.0,68,0.00,,,0.64,VWS V14.01,2013-10-03 22:30:00,
2013-10-03 17:31:00,72.8,63.7,29.72,NNE,16,3.0,4.0,73,0.00,,BKN095,0.64,VWS V14.01,2013-10-03 22:31:00,
2013-10-03 17:36:00,72.2,63.8,29.73,NNW,343,4.0,4.0,75,0.00,,BKN095,0.64,VWS V14.01,2013-10-03 22:36:00,
2013-10-03 17:41:00,71.7,64.5,29.74,North,6,2.0,4.0,78,0.00,,BKN095,0.64,VWS V14.01,2013-10-03 22:41:00,
2013-10-03 17:46:00,71.2,64.7,29.74,North,6,1.0,5.0,80,0.00,,BKN095,0.64,VWS V14.01,2013-10-03 22:46:00,
2013-10-03 17:51:00,70.7,64.2,29.73,NE,50,2.0,7.0,80,0.00,,BKN095,0.64,VWS V14.01,2013-10-03 22:51:00,
2013-10-03 17:56:00,70.2,64.1,29.74,NNE,25,2.0,8.0,81,0.00,,BKN095,0.64,VWS V14.01,2013-10-03 22:56:00,
2013-10-03 18:00:00,75.6,65.5,29.71,NNW,342,0.0,5.0,71,0.00,,,0.64,VWS V14.01,2013-10-03 23:00:00,
2013-10-03 18:01:00,69.7,63.6,29.74,North,359,3.0,4.0,81,0.00,,BKN090,0.64,VWS V14.01,2013-10-03 23:01:00,
2013-10-03 18:06:00,69.0,63.6,29.74,North,350,2.0,5.0,83,0.00,,BKN090,0.64,VWS V14.01,2013-10-03 23:06:00,
2013-10-03 18:11:00,68.4,63.4,29.74,NNE,26,0.0,5.0,84,0.00,,BKN090,0.64,VWS V14.01,2013-10-03 23:11:00,
2013-10-03 18:16:00,67.9,63.2,29.74,NE,36,2.0,5.0,85,0.00,,BKN090,0.64,VWS V14.01,2013-10-03 23:16:00,
2013-10-03 18:21:00,67.4,62.7,29.75,North,359,1.0,7.0,85,0.00,,BKN090,0.64,VWS V14.01,2013-10-03 23:21:00,
2013-10-03 18:26:00,67.0,62.7,29.74,NE,40,2.0,7.0,86,0.00,,BKN090,0.64,VWS V14.01,2013-10-03 23:26:00,
2013-10-03 18:30:00,72.9,63.8,29.72,NNE,15,3.0,4.0,73,0.00,,,0.64,VWS V14.01,2013-10-03 23:30:00,
2013-10-03 18:31:00,66.7,62.4,29.74,NNE,26,2.0,3.0,86,0.00,,BKN090,0.64,VWS V14.01,2013-10-03 23:31:00,
2013-10-03 18:36:00,66.3,62.3,29.75,NNE,20,1.0,6.0,87,0.00,,BKN090,0.64,VWS V14.01,2013-10-03 23:36:00,
2013-10-03 18:41:00,66.0,62.3,29.75,North,356,2.0,6.0,88,0.00,,BKN090,0.64,VWS V14.01,2013-10-03 23:41:00,
2013-10-03 18:46:00,65.6,62.0,29.75,NNE,16,4.0,6.0,88,0.00,,BKN090,0.64,VWS V14.01,2013-10-03 23:46:00,
2013-10-03 18:51:00,65.2,61.6,29.75,NNW,346,2.0,7.0,88,0.00,,BKN090,0.64,VWS V14.01,2013-10-03 23:51:00,
2013-10-03 18:56:00,64.8,61.5,29.75,North,6,2.0,7.0,89,0.00,,BKN090,0.64,VWS V14.01,2013-10-03 23:56:00,
2013-10-03 19:00:00,69.8,63.7,29.74,North,356,5.0,8.0,81,0.00,,,0.64,VWS V14.01,2013-10-04 00:00:00,
2013-10-03 19:01:00,64.5,61.5,29.76,North,354,3.0,3.0,90,0.00,,BKN010,0.64,VWS V14.01,2013-10-04 00:01:00,
2013-10-03 19:06:00,64.3,61.3,29.76,NE,52,1.0,8.0,90,0.00,,BKN010,0.64,VWS V14.01,2013-10-04 00:06:00,
2013-10-03 19:11:00,64.1,61.1,29.76,NNW,331,3.0,10.0,90,0.00,,BKN010,0.64,VWS V14.01,2013-10-04 00:11:00,
2013-10-03 19:16:00,63.9,60.9,29.76,NE,46,2.0,10.0,90,0.00,,BKN010,0.64,VWS V14.01,2013-10-04 00:16:00,
2013-10-03 19:21:00,63.7,60.7,29.75,NNE,32,3.0,10.0,90,0.00,,BKN010,0.64,VWS V14.01,2013-10-04 00:21:00,
2013-10-03 19:26:00,63.4,60.7,29.76,NNW,348,1.0,10.0,91,0.00,,BKN010,0.64,VWS V14.01,2013-10-04 00:26:00,
2013-10-03 19:30:00,66.7,62.4,29.74,NNE,16,1.0,7.0,86,0.00,,,0.64,VWS V14.01,2013-10-04 00:30:00,
2013-10-03 19:31:00,63.3,60.6,29.76,NNE,23,1.0,2.0,91,0.00,,BKN010,0.64,VWS V14.01,2013-10-04 00:31:00,
2013-10-03 19:36:00,63.2,60.8,29.76,North,4,1.0,7.0,92,0.00,,OVC008,0.64,VWS V14.01,2013-10-04 00:36:00,
2013-10-03 19:41:00,63.1,60.7,29.77,NNE,17,0.0,8.0,92,0.00,,OVC008,0.64,VWS V14.01,2013-10-04 00:41:00,
2013-10-03 19:46:00,63.0,60.6,29.76,NNW,341,4.0,8.0,92,0.00,,OVC008,0.64,VWS V14.01,2013-10-04 00:46:00,
2013-10-03 19:51:00,62.9,60.5,29.77,North,9,4.0,8.0,92,0.00,,OVC008,0.64,VWS V14.01,2013-10-04 00:51:00,
2013-10-03 19:56:00,62.9,60.5,29.76,NNE,23,0.0,8.0,92,0.00,,OVC008,0.64,VWS V14.01,2013-10-04 00:56:00,
2013-10-03 20:00:00,64.6,61.6,29.76,North,354,1.0,7.0,90,0.00,,,0.64,VWS V14.01,2013-10-04 01:00:00,
2013-10-03 20:01:00,62.8,60.5,29.76,NNW,339,2.0,2.0,92,0.00,,OVC008,0.64,VWS V14.01,2013-10-04 01:01:00,
2013-10-03 20:06:00,62.8,60.5,29.76,North,351,1.0,7.0,92,0.00,,OVC008,0.64,VWS V14.01,2013-10-04 01:06:00,
2013-10-03 20:11:00,62.7,60.3,29.76,NE,41,0.0,10.0,92,0.00,,OVC008,0.64,VWS V14.01,2013-10-04 01:11:00,
2013-10-03 20:16:00,62.6,60.5,29.76,NNE,17,0.0,10.0,93,0.00,,OVC008,0.64,VWS V14.01,2013-10-04 01:16:00,
2013-10-03 20:21:00,62.6,60.5,29.77,NNE,18,0.0,10.0,93,0.00,,OVC008,0.64,VWS V14.01,2013-10-04 01:21:00,
2013-10-03 20:26:00,62.5,60.5,29.77,NE,36,0.0,10.0,93,0.00,,OVC008,0.64,VWS V14.01,2013-10-04 01:26:00,
2013-10-03 20:30:00,63.3,60.6,29.76,NNE,28,0.0,10.0,91,0.00,,,0.64,VWS V14.01,2013-10-04 01:30:00,
2013-10-03 20:31:00,62.4,60.3,29.77,North,6,3.0,3.0,93,0.00,,OVC008,0.64,VWS V14.01,2013-10-04 01:31:00,
2013-10-03 20:36:00,62.2,60.2,29.77,NNW,338,0.0,5.0,93,0.00,,OVC008,0.64,VWS V14.01,2013-10-04 01:36:00,
2013-10-03 20:41:00,62.1,60.1,29.77,North,358,0.0,5.0,93,0.00,,OVC008,0.64,VWS V14.01,2013-10-04 01:41:00,
2013-10-03 20:46:00,61.9,59.9,29.77,North,1,0.0,5.0,93,0.00,,SCT008,0.64,VWS V14.01,2013-10-04 01:46:00,
2013-10-03 20:51:00,61.7,59.7,29.77,North,1,0.0,5.0,93,0.00,,SCT008,0.64,VWS V14.01,2013-10-04 01:51:00,
2013-10-03 20:56:00,61.5,59.8,29.77,North,1,0.0,5.0,94,0.00,,SCT008,0.64,VWS V14.01,2013-10-04 01:56:00,
2013-10-03 21:00:00,62.8,60.5,29.76,NE,46,1.0,8.0,92,0.00,,,0.64,VWS V14.01,2013-10-04 02:00:00,
2013-10-03 21:01:00,61.4,59.7,29.77,North,6,0.0,0.0,94,0.00,,FEW007,0.64,VWS V14.01,2013-10-04 02:01:00,
2013-10-03 21:06:00,61.2,59.5,29.77,North,6,0.0,0.0,94,0.00,,FEW007,0.64,VWS V14.01,2013-10-04 02:06:00,
2013-10-03 21:11:00,61.1,59.4,29.77,North,6,0.0,0.0,94,0.00,,FEW007,0.64,VWS V14.01,2013-10-04 02:11:00,
2013-10-03 21:16:00,60.9,59.5,29.77,North,6,0.0,0.0,95,0.00,,FEW007,0.64,VWS V14.01,2013-10-04 02:16:00,
2013-10-03 21:21:00,60.7,59.3,29.77,North,351,0.0,1.0,95,0.00,,BKN005,0.64,VWS V14.01,2013-10-04 02:21:00,
2013-10-03 21:26:00,60.5,59.1,29.77,North,352,0.0,1.0,95,0.00,,BKN005,0.64,VWS V14.01,2013-10-04 02:26:00,
2013-10-03 21:30:00,62.4,60.3,29.77,North,9,0.0,10.0,93,0.00,,,0.64,VWS V14.01,2013-10-04 02:30:00,
2013-10-03 21:31:00,60.4,59.0,29.77,North,352,0.0,0.0,95,0.00,,BKN005,0.64,VWS V14.01,2013-10-04 02:31:00,
2013-10-03 21:36:00,60.3,59.2,29.77,NE,36,0.0,1.0,96,0.00,,BKN005,0.64,VWS V14.01,2013-10-04 02:36:00,
2013-10-03 21:41:00,60.2,59.1,29.77,NNE,18,0.0,1.0,96,0.00,,BKN005,0.64,VWS V14.01,2013-10-04 02:41:00,
2013-10-03 21:46:00,60.0,58.9,29.77,NNE,18,0.0,1.0,96,0.00,,,0.64,VWS V14.01,2013-10-04 02:46:00,
2013-10-03 21:51:00,59.9,58.8,29.77,NNE,19,0.0,1.0,96,0.00,,,0.64,VWS V14.01,2013-10-04 02:51:00,
2013-10-03 21:56:00,59.8,58.7,29.77,North,9,0.0,1.0,96,0.00,,,0.64,VWS V14.01,2013-10-04 02:56:00,
2013-10-03 22:00:00,61.4,59.7,29.77,North,4,0.0,5.0,94,0.00,,,0.64,VWS V14.01,2013-10-04 03:00:00,
2013-10-03 22:01:00,59.9,58.8,29.78,NNE,30,0.0,0.0,96,0.00,,,0.64,VWS V14.01,2013-10-04 03:01:00,
2013-10-03 22:06:00,59.8,59.0,29.78,NNE,20,0.0,0.0,97,0.00,,,0.64,VWS V14.01,2013-10-04 03:06:00,
2013-10-03 22:11:00,59.9,59.0,29.78,NNE,25,0.0,1.0,97,0.00,,,0.64,VWS V14.01,2013-10-04 03:11:00,
2013-10-03 22:16:00,59.9,59.0,29.79,North,350,0.0,2.0,97,0.00,,,0.64,VWS V14.01,2013-10-04 03:16:00,
2013-10-03 22:21:00,60.0,59.2,29.79,North,4,0.0,2.0,97,0.00,,,0.64,VWS V14.01,2013-10-04 03:21:00,
2013-10-03 22:26:00,60.0,59.2,29.78,North,1,0.0,2.0,97,0.00,,,0.64,VWS V14.01,2013-10-04 03:26:00,
2013-10-03 22:30:00,60.4,59.0,29.77,North,352,0.0,1.0,95,0.00,,,0.64,VWS V14.01,2013-10-04 03:30:00,
2013-10-03 22:31:00,60.0,59.2,29.78,NNW,348,0.0,0.0,97,0.00,,,0.64,VWS V14.01,2013-10-04 03:31:00,
2013-10-03 22:36:00,60.0,59.2,29.79,NNE,16,2.0,2.0,97,0.00,,,0.64,VWS V14.01,2013-10-04 03:36:00,
2013-10-03 22:41:00,60.0,59.2,29.79,North,356,0.0,2.0,97,0.00,,,0.64,VWS V14.01,2013-10-04 03:41:00,
2013-10-03 22:46:00,60.0,59.2,29.79,North,6,2.0,3.0,97,0.00,,,0.64,VWS V14.01,2013-10-04 03:46:00,
2013-10-03 22:51:00,60.0,59.2,29.79,NNE,15,0.0,5.0,97,0.00,,,0.64,VWS V14.01,2013-10-04 03:51:00,
2013-10-03 22:56:00,60.0,59.2,29.79,NNE,19,2.0,6.0,97,0.00,,,0.64,VWS V14.01,2013-10-04 03:56:00,
2013-10-03 23:00:00,59.8,58.7,29.78,NNE,30,0.0,1.0,96,0.00,,,0.64,VWS V14.01,2013-10-04 04:00:00,
2013-10-03 23:30:00,60.0,59.2,29.78,North,349,0.0,2.0,97,0.00,,,0.64,VWS V14.01,2013-10-04 04:30:00,
2013-10-03 23:32:00,59.9,59.3,29.80,NNW,345,2.0,2.0,98,0.00,,,0.64,VWS V14.01,2013-10-04 04:32:00,
2013-10-03 23:35:00,59.8,59.2,29.80,North,356,0.0,3.0,98,0.00,,,0.64,VWS V14.01,2013-10-04 04:35:00,
2013-10-03 23:36:00,59.9,59.3,29.80,North,356,0.0,3.0,98,0.00,,,0.64,VWS V14.01,2013-10-04 04:36:00,
2013-10-03 23:37:00,59.9,59.3,29.80,North,359,0.0,3.0,98,0.00,,,0.64,VWS V14.01,2013-10-04 04:37:00,
2013-10-03 23:42:00,59.7,59.1,29.80,NNW,335,3.0,7.0,98,0.00,,,0.64,VWS V14.01,2013-10-04 04:42:00,
2013-10-03 23:43:00,59.7,59.1,29.80,NNW,345,5.0,7.0,98,0.00,,,0.64,VWS V14.01,2013-10-04 04:43:00,
2013-10-03 23:44:00,59.7,59.1,29.80,North,6,1.0,7.0,98,0.00,,,0.64,VWS V14.01,2013-10-04 04:44:00,
2013-10-03 23:46:00,59.6,59.0,29.80,NNE,25,4.0,7.0,98,0.00,,,0.64,VWS V14.01,2013-10-04 04:46:00,
2013-10-03 23:47:00,59.6,59.0,29.80,North,350,3.0,7.0,98,0.00,,,0.64,VWS V14.01,2013-10-04 04:47:00,
2013-10-03 23:48:00,59.6,59.0,29.80,North,356,1.0,7.0,98,0.00,,,0.64,VWS V14.01,2013-10-04 04:48:00,
2013-10-03 23:54:00,59.6,59.0,29.80,NW,311,2.0,7.0,98,0.00,,,0.64,VWS V14.01,2013-10-04 04:54:00,
2013-10-03 23:55:00,59.6,59.0,29.80,NNE,17,2.0,7.0,98,0.00,,,0.64,VWS V14.01,2013-10-04 04:55:00,
2013-10-03 23:57:00,59.5,58.9,29.80,NE,49,0.0,7.0,98,0.00,,,0.64,VWS V14.01,2013-10-04 04:57:00,
2013-10-03 23:59:00,59.5,58.9,29.79,North,349,2.0,7.0,98,0.00,,,0.64,VWS V14.01,2013-10-04 04:59:00,